Regional Weather Roundup
Issued by NWS Cleveland, OH

Home | Current Version | Previous Version | Graphics & Text | Print | Product List | Glossary On
Versions: 1 2 3 4 5 6 7 8 9 10 11 12 13 14 15 16 17 18 19 20 21 22 23 24 25 26 27 28 29 30 31 32 33 34 35 36 37 38 39 40 41 42 43 44 45 46 47 48 49 50
000
ASUS41 KCLE 180110
RWRCLE
OHIO REGIONAL WEATHER ROUNDUP
NATIONAL WEATHER SERVICE WILMINGTON, OH
900 PM EDT WED SEP 17 2014

NOTE: "FAIR" INDICATES FEW OR NO CLOUDS BELOW 12,000 FEET WITH NO
SIGNIFICANT WEATHER AND/OR OBSTRUCTIONS TO VISIBILITY.

OHZ001>008-015>018-024>027-034-035-043-044-180200-
   NORTHWEST OHIO

CITY           SKY/WX    TMP DP  RH WIND       PRES   REMARKS
DEFIANCE       CLEAR     54  49  83 CALM      29.99R
FINDLAY        PTCLDY    59  48  67 CALM      29.99R
TOLEDO EXPRESS MOCLDY    55  51  86 CALM      29.99R
TOLEDO METCALF CLOUDY    62  47  57 N3        29.99R
LIMA           CLEAR     56  51  84 CALM      29.99S
$$

OHZ009>014-019>023-028>033-038-089-180200-
   NORTHEAST OHIO

CITY           SKY/WX    TMP DP  RH WIND       PRES   REMARKS
CLE-HOPKINS    PTCLDY    58  48  69 CALM      30.01S
CLE-LAKEFRONT  CLEAR     62  46  55 NW5       29.98S
CUY CO. ARPT   PTCLDY    55  52  88 CALM      30.01R
LORAIN-ELYRIA  CLEAR     57  51  80 CALM      30.00R
ASHTABULA      PTCLDY    51  49  92 CALM      30.01R
AKRON-CANTON   PTCLDY    58  48  69 N6        30.00R
WOOSTER        CLOUDY    56  49  77 N8        30.00R
MANSFIELD      CLEAR     53  47  79 CALM      30.00R
YOUNGSTOWN     PTCLDY    56  49  77 N8        30.00R
$$

OHZ042-051>053-060>062-070>072-077>081-180200-
  SOUTHWEST OHIO

CITY           SKY/WX    TMP DP  RH WIND       PRES   REMARKS
CINC-COVINGTON PTCLDY    60  49  66 N3        29.98S
CINC-LUNKEN    PTCLDY    59  53  80 CALM      29.99S
HAMILTON       CLEAR     52  51  97 CALM      30.00S
DAYTON         CLEAR     60  48  64 SE3       30.00S
WRIGHT-PAT AFB CLEAR     57  49  75 CALM      29.99S
DAYTON GENERAL CLEAR     56  50  80 CALM      29.99R
WILMINGTON     CLEAR     54  48  80 N3        30.00R
$$

OHZ036-037-039>041-045>050-054>059-063>069-073>076-082>088-180200-
  CENTRAL AND SOUTHEAST OHIO

CITY           SKY/WX    TMP DP  RH WIND       PRES   REMARKS
COLUMBUS       PTCLDY    61  48  62 N3        29.98S
OSU AIRPORT    PTCLDY    60  47  61 NW5       29.99R
BOLTON FIELD   CLEAR     58  49  69 W5        29.99S
RICKENBACK AFB CLEAR     59  49  69 NW6       29.98S
NEWARK         CLEAR     52  49  89 CALM      29.99R
MARION         CLEAR     56  47  71 NW3       30.00R
LANCASTER      CLEAR     53  50  89 CALM      29.99R
ZANESVILLE     CLEAR     58  50  75 CALM      29.98S
NEW PHILLY     PTCLDY    54  51  90 CALM      30.00R
$$


USA.gov is the U.S. government's official web portal to all federal, state and local government web resources and services.